This demonstration page uses our WeatherBlox Daily Observations layout. Learn more.

Left ArrowRight Arrow

38.20091, -84.87328

Hourly Observations for June 23, 2021

Temp ( °F °C ) Dew Point ( °F °C ) Humidity (%) Winds ( mph kmh ) Pressure ( in mb ) Visibility ( mi km ) Precip ( " mm )
12:53 am 00:53 Clear 54 12.2 50 10 87 87 Calm 30.10 1019 10 16 0.00 0.00
1:53 am 01:53 Clear 53 11.7 49 9.4 86 86 Calm 30.11 1020 10 16 0.00 0.00
2:53 am 02:53 Clear 51 10.6 49 9.4 92 92 NNW 3 6 30.11 1020 10 16 0.00 0.00
3:53 am 03:53 Clear 51 10.6 49 9.4 92 92 SE 3 6 30.10 1019 10 16 0.00 0.00
4:53 am 04:53 Clear 50 10 48 8.9 93 93 Calm 30.11 1020 10 16 0.00 0.00
5:53 am 05:53 Clear 50 10 47 8.3 89 89 Calm 30.12 1020 10 16 0.00 0.00
6:53 am 06:53 Sunny 50 10 48 8.9 93 93 Calm 30.15 1021 10 16 0.00 0.00
7:53 am 07:53 Sunny 57 13.9 52 11.1 83 83 Calm 30.16 1021 10 16 0.00 0.00
8:53 am 08:53 Sunny 61 16.1 52 11.1 72 72 SE 6 9 30.17 1022 10 16 0.00 0.00
9:53 am 09:53 Sunny 68 20 50 10 53 53 SE 9 15 30.17 1022 10 16 0.00 0.00
10:53 am 10:53 Sunny 71 21.7 45 7.2 39 39 ESE 13 20 30.18 1022 10 16 0.00 0.00
11:53 am 11:53 Sunny 73 22.8 44 6.7 35 35 ESE 13 20 30.19 1022 10 16 0.00 0.00
12:53 pm 12:53 Sunny 75 23.9 44 6.7 33 33 undefined N/A 30.19 1022 10 16 0.00 0.00
1:53 pm 13:53 Sunny 77 25 47 8.3 35 35 E 10 17 30.18 1022 10 16 0.00 0.00
2:53 pm 14:53 Sunny 78 25.6 47 8.3 33 33 E 12 19 30.16 1022 10 16 0.00 0.00
3:53 pm 15:53 Sunny 79 26.1 49 9.4 35 35 VRB 5 7 30.15 1021 10 16 0.00 0.00
4:53 pm 16:53 Sunny 79 26.1 50 10 36 36 ESE 10 17 30.14 1021 10 16 0.00 0.00
5:53 pm 17:53 Sunny 79 26.1 48 8.9 34 34 SE 9 15 30.14 1021 10 16 0.00 0.00
6:53 pm 18:53 Sunny 78 25.6 48 8.9 35 35 ESE 8 13 30.14 1021 10 16 0.00 0.00
7:53 pm 19:53 Sunny 76 24.4 50 10 40 40 SE 7 11 30.13 1020 10 16 0.00 0.00
8:53 pm 20:53 Sunny 72 22.2 52 11.1 50 50 E 6 9 30.13 1020 10 16 0.00 0.00
9:53 pm 21:53 Clear 69 20.6 52 11.1 55 55 E 5 7 30.13 1020 10 16 0.00 0.00
10:53 pm 22:53 Clear 68 20 52 11.1 57 57 ESE 5 7 30.12 1020 10 16 0.00 0.00
11:53 pm 23:53 Clear 67 19.4 52 11.1 59 59 SE 5 7 30.12 1020 10 16 0.00 0.00

Powered by AerisWeather